Simultaneous Nadir Overpasses (SNOs) Predictions

Prediction of SNOs over PacNW region [( 10.00, 139.50) to ( 22.70, 165.60)] between AQUA and NPP Satellites:

Table of predicted SNOs over PacNW region for the next 30.0 days since TLE Epoch: 8/26/2016
Index Date (AQUA) Time (AQUA) AQUA Lat,Lon Date (NPP) Time (NPP) NPP Lat,Lon Distance(km) Time Diff (sec)
1 08/28/2016 03:31:18 22.68, 147.53 08/28/2016 03:27:48 22.82, 145.81 177.26 210
2 09/02/2016 15:58:54 22.63, 147.49 09/02/2016 16:02:10 23.25, 144.66 297.85 196
3 09/10/2016 15:09:29 22.60, 159.83 09/10/2016 15:11:22 23.14, 157.33 262.74 113
4 09/13/2016 03:31:19 22.68, 147.51 09/13/2016 03:27:49 23.52, 145.67 210.20 210
5 09/18/2016 15:58:54 22.63, 147.47 09/18/2016 16:01:59 23.23, 144.69 292.67 185




NCC Satellite Simultaneous Nadir Overpasses (SNOs) Prediction Service
